User: anonymous   Login
Location: Unspecified
(0.0000°N, 0.0000°E)
Time: 22:05:32
(UTC+00:00)
Language:

Transit 4A - Orbit

View from above orbital plane
View from above orbital plane
View from above satellite
View from above satellite

Ground track
Ground track

The orbit data is extracted from the following two-line orbital elements,

1   116U 61015A   17289.87763819 -.00000042 +00000-0 +26492-4 0  9991
2   116 066.8099 070.5810 0078882 327.5668 032.0575 13.91719612856202
Epoch (UTC): 16 October 2017 21:03:47
Eccentricity: 0.0078882
inclination: 66.8099°
perigee height: 865 km
apogee height: 980 km
right ascension of ascending node: 70.5810°
argument of perigee: 327.5668°
revolutions per day: 13.91719612
mean anomaly at epoch: 32.0575°
orbit number at epoch: 85620

The dashed part of the orbit path shows where the satellite is in the earth's shadow,  

DLR